Location: Dzierżoniów
(50.7304°N, 16.6502°E)
Time: 22:51:30
(UTC+01:00)

ISS - Visible Passes

Search period start: 23 January 2019 00:00
Search period end: 02 February 2019 00:00
Orbit: 404 x 410 km, 51.6° (Epoch: 24 January)

Date Brightness Start Highest point End Pass type
(mag) Time Alt. Az. Time Alt. Az. Time Alt. Az.
23 Jan -1.7 18:39:36 10° SSW 18:41:05 19° S 18:41:05 19° S visible
24 Jan -1.7 17:49:08 10° S 17:51:08 15° SE 17:52:04 14° ESE visible
24 Jan -1.1 19:23:55 10° WSW 19:24:47 17° SW 19:24:47 17° SW visible
25 Jan -3.1 18:32:44 10° SW 18:35:41 40° SSE 18:35:41 40° SSE visible
26 Jan -2.5 17:41:45 10° SSW 17:44:37 28° SSE 17:46:30 16° E visible
26 Jan -1.7 19:17:36 10° WSW 19:19:14 27° WSW 19:19:14 27° WSW visible
27 Jan -3.8 18:26:15 10° WSW 18:29:32 68° SSE 18:30:00 57° ESE visible
28 Jan -3.3 17:34:58 10° SW 17:38:11 48° SSE 17:40:43 15° E visible
28 Jan -2.2 19:11:21 10° W 19:13:26 35° W 19:13:26 35° W visible
29 Jan -3.9 18:19:54 10° W 18:23:13 86° N 18:24:07 45° ENE visible
29 Jan -0.3 19:56:32 10° W 19:56:50 12° W 19:56:50 12° W visible
30 Jan -3.8 17:28:29 10° WSW 17:31:47 77° SSE 17:34:47 12° ENE visible
30 Jan -2.7 19:05:05 10° W 19:07:30 44° WNW 19:07:30 44° WNW visible
31 Jan -3.8 18:13:35 10° W 18:16:54 74° N 18:18:09 35° ENE visible
31 Jan -0.6 19:50:12 10° WNW 19:50:52 15° WNW 19:50:52 15° WNW visible
01 Feb -3.8 17:22:06 10° W 17:25:25 80° N 17:28:43 10° E visible
01 Feb -3.4 18:58:43 10° WNW 19:01:32 61° WNW 19:01:32 61° WNW visible
